Index of /20260428/WXO-DD/model_rdps/10km/00/060
Name Last modified Size Description
Parent Directory -
20260428T00Z_MSC_RDPS_AbsoluteVorticity_IsbL-0250_RLatLon0.09_PT060H.grib2 2026-04-28 02:58 621K
20260428T00Z_MSC_RDPS_AbsoluteVorticity_IsbL-0500_RLatLon0.09_PT060H.grib2 2026-04-28 02:58 571K
20260428T00Z_MSC_RDPS_AbsoluteVorticity_IsbL-0700_RLatLon0.09_PT060H.grib2 2026-04-28 02:58 620K
20260428T00Z_MSC_RDPS_AbsoluteVorticity_IsbL-0850_RLatLon0.09_PT060H.grib2 2026-04-28 02:58 772K
20260428T00Z_MSC_RDPS_AirTemp_AGL-120m_RLatLon0.09_PT060H.grib2 2026-04-28 02:58 378K
20260428T00Z_MSC_RDPS_AirTemp_AGL-2m_RLatLon0.09_PT060H.grib2 2026-04-28 02:58 628K
20260428T00Z_MSC_RDPS_AirTemp_AGL-40m_RLatLon0.09_PT060H.grib2 2026-04-28 02:58 397K
20260428T00Z_MSC_RDPS_AirTemp_AGL-80m_RLatLon0.09_PT060H.grib2 2026-04-28 02:58 387K
20260428T00Z_MSC_RDPS_AirTemp_IsbL-0001_RLatLon0.09_PT060H.grib2 2026-04-28 02:58 308K
20260428T00Z_MSC_RDPS_AirTemp_IsbL-0005_RLatLon0.09_PT060H.grib2 2026-04-28 02:58 290K
20260428T00Z_MSC_RDPS_AirTemp_IsbL-0010_RLatLon0.09_PT060H.grib2 2026-04-28 02:58 303K
20260428T00Z_MSC_RDPS_AirTemp_IsbL-0020_RLatLon0.09_PT060H.grib2 2026-04-28 02:58 317K
20260428T00Z_MSC_RDPS_AirTemp_IsbL-0030_RLatLon0.09_PT060H.grib2 2026-04-28 02:58 343K
20260428T00Z_MSC_RDPS_AirTemp_IsbL-0050_RLatLon0.09_PT060H.grib2 2026-04-28 02:58 316K
20260428T00Z_MSC_RDPS_AirTemp_IsbL-0100_RLatLon0.09_PT060H.grib2 2026-04-28 02:58 427K
20260428T00Z_MSC_RDPS_AirTemp_IsbL-0150_RLatLon0.09_PT060H.grib2 2026-04-28 02:58 423K
20260428T00Z_MSC_RDPS_AirTemp_IsbL-0175_RLatLon0.09_PT060H.grib2 2026-04-28 02:58 410K
20260428T00Z_MSC_RDPS_AirTemp_IsbL-0200_RLatLon0.09_PT060H.grib2 2026-04-28 02:58 414K
20260428T00Z_MSC_RDPS_AirTemp_IsbL-0225_RLatLon0.09_PT060H.grib2 2026-04-28 02:58 417K
20260428T00Z_MSC_RDPS_AirTemp_IsbL-0250_RLatLon0.09_PT060H.grib2 2026-04-28 02:58 427K
20260428T00Z_MSC_RDPS_AirTemp_IsbL-0275_RLatLon0.09_PT060H.grib2 2026-04-28 02:58 405K
20260428T00Z_MSC_RDPS_AirTemp_IsbL-0300_RLatLon0.09_PT060H.grib2 2026-04-28 02:58 410K
20260428T00Z_MSC_RDPS_AirTemp_IsbL-0350_RLatLon0.09_PT060H.grib2 2026-04-28 02:58 423K
20260428T00Z_MSC_RDPS_AirTemp_IsbL-0400_RLatLon0.09_PT060H.grib2 2026-04-28 02:58 424K
20260428T00Z_MSC_RDPS_AirTemp_IsbL-0450_RLatLon0.09_PT060H.grib2 2026-04-28 02:58 395K
20260428T00Z_MSC_RDPS_AirTemp_IsbL-0500_RLatLon0.09_PT060H.grib2 2026-04-28 02:58 404K
20260428T00Z_MSC_RDPS_AirTemp_IsbL-0550_RLatLon0.09_PT060H.grib2 2026-04-28 02:58 423K
20260428T00Z_MSC_RDPS_AirTemp_IsbL-0600_RLatLon0.09_PT060H.grib2 2026-04-28 02:58 441K
20260428T00Z_MSC_RDPS_AirTemp_IsbL-0650_RLatLon0.09_PT060H.grib2 2026-04-28 02:58 457K
20260428T00Z_MSC_RDPS_AirTemp_IsbL-0700_RLatLon0.09_PT060H.grib2 2026-04-28 02:58 479K
20260428T00Z_MSC_RDPS_AirTemp_IsbL-0750_RLatLon0.09_PT060H.grib2 2026-04-28 02:58 516K
20260428T00Z_MSC_RDPS_AirTemp_IsbL-0800_RLatLon0.09_PT060H.grib2 2026-04-28 02:58 445K
20260428T00Z_MSC_RDPS_AirTemp_IsbL-0850_RLatLon0.09_PT060H.grib2 2026-04-28 02:58 501K
20260428T00Z_MSC_RDPS_AirTemp_IsbL-0875_RLatLon0.09_PT060H.grib2 2026-04-28 02:58 523K
20260428T00Z_MSC_RDPS_AirTemp_IsbL-0900_RLatLon0.09_PT060H.grib2 2026-04-28 02:58 531K
20260428T00Z_MSC_RDPS_AirTemp_IsbL-0925_RLatLon0.09_PT060H.grib2 2026-04-28 02:58 529K
20260428T00Z_MSC_RDPS_AirTemp_IsbL-0950_RLatLon0.09_PT060H.grib2 2026-04-28 02:58 530K
20260428T00Z_MSC_RDPS_AirTemp_IsbL-0970_RLatLon0.09_PT060H.grib2 2026-04-28 02:58 521K
20260428T00Z_MSC_RDPS_AirTemp_IsbL-0985_RLatLon0.09_PT060H.grib2 2026-04-28 02:58 506K
20260428T00Z_MSC_RDPS_AirTemp_IsbL-1000_RLatLon0.09_PT060H.grib2 2026-04-28 02:58 492K
20260428T00Z_MSC_RDPS_AirTemp_IsbL-1015_RLatLon0.09_PT060H.grib2 2026-04-28 02:58 491K
20260428T00Z_MSC_RDPS_Albedo_Sfc_RLatLon0.09_PT060H.grib2 2026-04-28 02:58 154K
20260428T00Z_MSC_RDPS_CAPE_Sfc_RLatLon0.09_PT060H.grib2 2026-04-28 02:58 1.6M
20260428T00Z_MSC_RDPS_CIN_Sfc_RLatLon0.09_PT060H.grib2 2026-04-28 02:58 1.0M
20260428T00Z_MSC_RDPS_CloudWater_EAtm_RLatLon0.09_PT060H.grib2 2026-04-28 02:58 219K
20260428T00Z_MSC_RDPS_ConvectivePrecip-Accum_Sfc_RLatLon0.09_PT060H.grib2 2026-04-28 02:58 1.1M
20260428T00Z_MSC_RDPS_DewPointDepression_AGL-2m_RLatLon0.09_PT060H.grib2 2026-04-28 02:58 394K
20260428T00Z_MSC_RDPS_DewPointDepression_IsbL-0001_RLatLon0.09_PT060H.grib2 2026-04-28 02:58 193
20260428T00Z_MSC_RDPS_DewPointDepression_IsbL-0005_RLatLon0.09_PT060H.grib2 2026-04-28 02:58 193
20260428T00Z_MSC_RDPS_DewPointDepression_IsbL-0010_RLatLon0.09_PT060H.grib2 2026-04-28 02:58 193
20260428T00Z_MSC_RDPS_DewPointDepression_IsbL-0020_RLatLon0.09_PT060H.grib2 2026-04-28 02:58 193
20260428T00Z_MSC_RDPS_DewPointDepression_IsbL-0030_RLatLon0.09_PT060H.grib2 2026-04-28 02:58 193
20260428T00Z_MSC_RDPS_DewPointDepression_IsbL-0050_RLatLon0.09_PT060H.grib2 2026-04-28 02:58 85K
20260428T00Z_MSC_RDPS_DewPointDepression_IsbL-0100_RLatLon0.09_PT060H.grib2 2026-04-28 02:58 128K
20260428T00Z_MSC_RDPS_DewPointDepression_IsbL-0150_RLatLon0.09_PT060H.grib2 2026-04-28 02:58 145K
20260428T00Z_MSC_RDPS_DewPointDepression_IsbL-0175_RLatLon0.09_PT060H.grib2 2026-04-28 02:58 176K
20260428T00Z_MSC_RDPS_DewPointDepression_IsbL-0200_RLatLon0.09_PT060H.grib2 2026-04-28 02:58 213K
20260428T00Z_MSC_RDPS_DewPointDepression_IsbL-0225_RLatLon0.09_PT060H.grib2 2026-04-28 02:58 262K
20260428T00Z_MSC_RDPS_DewPointDepression_IsbL-0250_RLatLon0.09_PT060H.grib2 2026-04-28 02:58 301K
20260428T00Z_MSC_RDPS_DewPointDepression_IsbL-0275_RLatLon0.09_PT060H.grib2 2026-04-28 02:58 305K
20260428T00Z_MSC_RDPS_DewPointDepression_IsbL-0300_RLatLon0.09_PT060H.grib2 2026-04-28 02:58 326K
20260428T00Z_MSC_RDPS_DewPointDepression_IsbL-0350_RLatLon0.09_PT060H.grib2 2026-04-28 02:58 328K
20260428T00Z_MSC_RDPS_DewPointDepression_IsbL-0400_RLatLon0.09_PT060H.grib2 2026-04-28 02:58 334K
20260428T00Z_MSC_RDPS_DewPointDepression_IsbL-0450_RLatLon0.09_PT060H.grib2 2026-04-28 02:58 339K
20260428T00Z_MSC_RDPS_DewPointDepression_IsbL-0500_RLatLon0.09_PT060H.grib2 2026-04-28 02:58 346K
20260428T00Z_MSC_RDPS_DewPointDepression_IsbL-0550_RLatLon0.09_PT060H.grib2 2026-04-28 02:58 360K
20260428T00Z_MSC_RDPS_DewPointDepression_IsbL-0600_RLatLon0.09_PT060H.grib2 2026-04-28 02:58 375K
20260428T00Z_MSC_RDPS_DewPointDepression_IsbL-0650_RLatLon0.09_PT060H.grib2 2026-04-28 02:58 383K
20260428T00Z_MSC_RDPS_DewPointDepression_IsbL-0700_RLatLon0.09_PT060H.grib2 2026-04-28 02:58 388K
20260428T00Z_MSC_RDPS_DewPointDepression_IsbL-0750_RLatLon0.09_PT060H.grib2 2026-04-28 02:58 405K
20260428T00Z_MSC_RDPS_DewPointDepression_IsbL-0800_RLatLon0.09_PT060H.grib2 2026-04-28 02:58 432K
20260428T00Z_MSC_RDPS_DewPointDepression_IsbL-0850_RLatLon0.09_PT060H.grib2 2026-04-28 02:58 468K
20260428T00Z_MSC_RDPS_DewPointDepression_IsbL-0875_RLatLon0.09_PT060H.grib2 2026-04-28 02:58 473K
20260428T00Z_MSC_RDPS_DewPointDepression_IsbL-0900_RLatLon0.09_PT060H.grib2 2026-04-28 02:58 462K
20260428T00Z_MSC_RDPS_DewPointDepression_IsbL-0925_RLatLon0.09_PT060H.grib2 2026-04-28 02:58 450K
20260428T00Z_MSC_RDPS_DewPointDepression_IsbL-0950_RLatLon0.09_PT060H.grib2 2026-04-28 02:58 444K
20260428T00Z_MSC_RDPS_DewPointDepression_IsbL-0970_RLatLon0.09_PT060H.grib2 2026-04-28 02:58 435K
20260428T00Z_MSC_RDPS_DewPointDepression_IsbL-0985_RLatLon0.09_PT060H.grib2 2026-04-28 02:58 428K
20260428T00Z_MSC_RDPS_DewPointDepression_IsbL-1000_RLatLon0.09_PT060H.grib2 2026-04-28 02:58 425K
20260428T00Z_MSC_RDPS_DewPointDepression_IsbL-1015_RLatLon0.09_PT060H.grib2 2026-04-28 02:58 416K
20260428T00Z_MSC_RDPS_DewPoint_AGL-2m_RLatLon0.09_PT060H.grib2 2026-04-28 02:58 398K
20260428T00Z_MSC_RDPS_DownwardLongwaveRadiationFlux-Accum_Sfc_RLatLon0.09_PT060H.grib2 2026-04-28 02:58 403K
20260428T00Z_MSC_RDPS_DownwardShortwaveRadiationFlux-Accum_NTAtm_RLatLon0.09_PT060H.grib2 2026-04-28 02:58 147K
20260428T00Z_MSC_RDPS_DownwardShortwaveRadiationFlux-Accum_Sfc_RLatLon0.09_PT060H.grib2 2026-04-28 02:58 569K
20260428T00Z_MSC_RDPS_FreezingRain-Accum12h_Sfc_RLatLon0.09_PT060H.grib2 2026-04-28 02:58 98K
20260428T00Z_MSC_RDPS_FreezingRain-Accum1h_Sfc_RLatLon0.09_PT060H.grib2 2026-04-28 02:58 56K
20260428T00Z_MSC_RDPS_FreezingRain-Accum24h_Sfc_RLatLon0.09_PT060H.grib2 2026-04-28 02:58 117K
20260428T00Z_MSC_RDPS_FreezingRain-Accum3h_Sfc_RLatLon0.09_PT060H.grib2 2026-04-28 02:58 65K
20260428T00Z_MSC_RDPS_FreezingRain-Accum6h_Sfc_RLatLon0.09_PT060H.grib2 2026-04-28 02:58 81K
20260428T00Z_MSC_RDPS_FreezingRain-Accum_Sfc_RLatLon0.09_PT060H.grib2 2026-04-28 02:58 215K
20260428T00Z_MSC_RDPS_GeopotentialHeight_IsbL-0001_RLatLon0.09_PT060H.grib2 2026-04-28 02:58 238K
20260428T00Z_MSC_RDPS_GeopotentialHeight_IsbL-0005_RLatLon0.09_PT060H.grib2 2026-04-28 02:58 302K
20260428T00Z_MSC_RDPS_GeopotentialHeight_IsbL-0010_RLatLon0.09_PT060H.grib2 2026-04-28 02:58 304K
20260428T00Z_MSC_RDPS_GeopotentialHeight_IsbL-0020_RLatLon0.09_PT060H.grib2 2026-04-28 02:58 302K
20260428T00Z_MSC_RDPS_GeopotentialHeight_IsbL-0030_RLatLon0.09_PT060H.grib2 2026-04-28 02:58 304K
20260428T00Z_MSC_RDPS_GeopotentialHeight_IsbL-0050_RLatLon0.09_PT060H.grib2 2026-04-28 02:58 306K
20260428T00Z_MSC_RDPS_GeopotentialHeight_IsbL-0100_RLatLon0.09_PT060H.grib2 2026-04-28 02:58 283K
20260428T00Z_MSC_RDPS_GeopotentialHeight_IsbL-0150_RLatLon0.09_PT060H.grib2 2026-04-28 02:58 228K
20260428T00Z_MSC_RDPS_GeopotentialHeight_IsbL-0175_RLatLon0.09_PT060H.grib2 2026-04-28 02:58 261K
20260428T00Z_MSC_RDPS_GeopotentialHeight_IsbL-0200_RLatLon0.09_PT060H.grib2 2026-04-28 02:58 263K
20260428T00Z_MSC_RDPS_GeopotentialHeight_IsbL-0225_RLatLon0.09_PT060H.grib2 2026-04-28 02:58 265K
20260428T00Z_MSC_RDPS_GeopotentialHeight_IsbL-0250_RLatLon0.09_PT060H.grib2 2026-04-28 02:58 265K
20260428T00Z_MSC_RDPS_GeopotentialHeight_IsbL-0275_RLatLon0.09_PT060H.grib2 2026-04-28 02:58 265K
20260428T00Z_MSC_RDPS_GeopotentialHeight_IsbL-0300_RLatLon0.09_PT060H.grib2 2026-04-28 02:58 265K
20260428T00Z_MSC_RDPS_GeopotentialHeight_IsbL-0350_RLatLon0.09_PT060H.grib2 2026-04-28 02:58 230K
20260428T00Z_MSC_RDPS_GeopotentialHeight_IsbL-0400_RLatLon0.09_PT060H.grib2 2026-04-28 02:58 226K
20260428T00Z_MSC_RDPS_GeopotentialHeight_IsbL-0450_RLatLon0.09_PT060H.grib2 2026-04-28 02:58 294K
20260428T00Z_MSC_RDPS_GeopotentialHeight_IsbL-0500_RLatLon0.09_PT060H.grib2 2026-04-28 02:58 288K
20260428T00Z_MSC_RDPS_GeopotentialHeight_IsbL-0550_RLatLon0.09_PT060H.grib2 2026-04-28 02:58 284K
20260428T00Z_MSC_RDPS_GeopotentialHeight_IsbL-0600_RLatLon0.09_PT060H.grib2 2026-04-28 02:58 253K
20260428T00Z_MSC_RDPS_GeopotentialHeight_IsbL-0650_RLatLon0.09_PT060H.grib2 2026-04-28 02:58 251K
20260428T00Z_MSC_RDPS_GeopotentialHeight_IsbL-0700_RLatLon0.09_PT060H.grib2 2026-04-28 02:58 330K
20260428T00Z_MSC_RDPS_GeopotentialHeight_IsbL-0750_RLatLon0.09_PT060H.grib2 2026-04-28 02:58 333K
20260428T00Z_MSC_RDPS_GeopotentialHeight_IsbL-0800_RLatLon0.09_PT060H.grib2 2026-04-28 02:58 340K
20260428T00Z_MSC_RDPS_GeopotentialHeight_IsbL-0850_RLatLon0.09_PT060H.grib2 2026-04-28 02:58 384K
20260428T00Z_MSC_RDPS_GeopotentialHeight_IsbL-0875_RLatLon0.09_PT060H.grib2 2026-04-28 02:58 388K
20260428T00Z_MSC_RDPS_GeopotentialHeight_IsbL-0900_RLatLon0.09_PT060H.grib2 2026-04-28 02:58 393K
20260428T00Z_MSC_RDPS_GeopotentialHeight_IsbL-0925_RLatLon0.09_PT060H.grib2 2026-04-28 02:58 396K
20260428T00Z_MSC_RDPS_GeopotentialHeight_IsbL-0950_RLatLon0.09_PT060H.grib2 2026-04-28 02:58 400K
20260428T00Z_MSC_RDPS_GeopotentialHeight_IsbL-0970_RLatLon0.09_PT060H.grib2 2026-04-28 02:58 406K
20260428T00Z_MSC_RDPS_GeopotentialHeight_IsbL-0985_RLatLon0.09_PT060H.grib2 2026-04-28 02:58 415K
20260428T00Z_MSC_RDPS_GeopotentialHeight_IsbL-1000_RLatLon0.09_PT060H.grib2 2026-04-28 02:58 427K
20260428T00Z_MSC_RDPS_GeopotentialHeight_IsbL-1015_RLatLon0.09_PT060H.grib2 2026-04-28 02:58 443K
20260428T00Z_MSC_RDPS_Humidex_Sfc_RLatLon0.09_PT060H.grib2 2026-04-28 02:58 2.4M
20260428T00Z_MSC_RDPS_IcePellets-Accum12h_Sfc_RLatLon0.09_PT060H.grib2 2026-04-28 02:58 4.5K
20260428T00Z_MSC_RDPS_IcePellets-Accum1h_Sfc_RLatLon0.09_PT060H.grib2 2026-04-28 02:58 1.6K
20260428T00Z_MSC_RDPS_IcePellets-Accum24h_Sfc_RLatLon0.09_PT060H.grib2 2026-04-28 02:58 13K
20260428T00Z_MSC_RDPS_IcePellets-Accum3h_Sfc_RLatLon0.09_PT060H.grib2 2026-04-28 02:58 1.9K
20260428T00Z_MSC_RDPS_IcePellets-Accum6h_Sfc_RLatLon0.09_PT060H.grib2 2026-04-28 02:58 3.0K
20260428T00Z_MSC_RDPS_IcePellets-Accum_Sfc_RLatLon0.09_PT060H.grib2 2026-04-28 02:58 32K
20260428T00Z_MSC_RDPS_KIndex_Sfc_RLatLon0.09_PT060H.grib2 2026-04-28 02:58 2.5M
20260428T00Z_MSC_RDPS_LatentHeatNetFlux_Sfc_RLatLon0.09_PT060H.grib2 2026-04-28 02:58 414K
20260428T00Z_MSC_RDPS_LiftedIndex-MU-VT_IsbL-0500_RLatLon0.09_PT060H.grib2 2026-04-28 02:58 2.4M
20260428T00Z_MSC_RDPS_NetLongwaveRadiationFlux-Accum_Sfc_RLatLon0.09_PT060H.grib2 2026-04-28 02:58 574K
20260428T00Z_MSC_RDPS_NetShortwaveRadiationFlux-Accum_Sfc_RLatLon0.09_PT060H.grib2 2026-04-28 02:58 572K
20260428T00Z_MSC_RDPS_PlanetaryBoundaryLayerHeight_Sfc_RLatLon0.09_PT060H.grib2 2026-04-28 02:58 1.1M
20260428T00Z_MSC_RDPS_Precip-Accum12h_Sfc_RLatLon0.09_PT060H.grib2 2026-04-28 02:58 1.6M
20260428T00Z_MSC_RDPS_Precip-Accum1h_Sfc_RLatLon0.09_PT060H.grib2 2026-04-28 02:58 1.2M
20260428T00Z_MSC_RDPS_Precip-Accum24h_Sfc_RLatLon0.09_PT060H.grib2 2026-04-28 02:58 1.8M
20260428T00Z_MSC_RDPS_Precip-Accum3h_Sfc_RLatLon0.09_PT060H.grib2 2026-04-28 02:58 1.3M
20260428T00Z_MSC_RDPS_Precip-Accum6h_Sfc_RLatLon0.09_PT060H.grib2 2026-04-28 02:58 1.4M
20260428T00Z_MSC_RDPS_Precip-Accum_Sfc_RLatLon0.09_PT060H.grib2 2026-04-28 02:58 2.1M
20260428T00Z_MSC_RDPS_PrecipRate_Sfc_RLatLon0.09_PT060H.grib2 2026-04-28 02:58 158K
20260428T00Z_MSC_RDPS_PrecipType-Instant_Sfc_RLatLon0.09_PT060H.grib2 2026-04-28 02:58 557K
20260428T00Z_MSC_RDPS_Pressure-Trend3h_Sfc_RLatLon0.09_PT060H.grib2 2026-04-28 02:58 1.2M
20260428T00Z_MSC_RDPS_Pressure_MSL_RLatLon0.09_PT060H.grib2 2026-04-28 02:58 292K
20260428T00Z_MSC_RDPS_Pressure_PVU-1.5_RLatLon0.09_PT060H.grib2 2026-04-28 02:58 2.5M
20260428T00Z_MSC_RDPS_Pressure_PVU-1_RLatLon0.09_PT060H.grib2 2026-04-28 02:58 2.4M
20260428T00Z_MSC_RDPS_Pressure_PVU-2_RLatLon0.09_PT060H.grib2 2026-04-28 02:58 2.4M
20260428T00Z_MSC_RDPS_Pressure_Sfc_RLatLon0.09_PT060H.grib2 2026-04-28 02:58 501K
20260428T00Z_MSC_RDPS_RadiativeTemp_Sfc_RLatLon0.09_PT060H.grib2 2026-04-28 02:58 307K
20260428T00Z_MSC_RDPS_Rain-Accum12h_Sfc_RLatLon0.09_PT060H.grib2 2026-04-28 02:58 1.1M
20260428T00Z_MSC_RDPS_Rain-Accum1h_Sfc_RLatLon0.09_PT060H.grib2 2026-04-28 02:58 576K
20260428T00Z_MSC_RDPS_Rain-Accum24h_Sfc_RLatLon0.09_PT060H.grib2 2026-04-28 02:58 1.2M
20260428T00Z_MSC_RDPS_Rain-Accum3h_Sfc_RLatLon0.09_PT060H.grib2 2026-04-28 02:58 646K
20260428T00Z_MSC_RDPS_Rain-Accum6h_Sfc_RLatLon0.09_PT060H.grib2 2026-04-28 02:58 895K
20260428T00Z_MSC_RDPS_Rain-Accum_Sfc_RLatLon0.09_PT060H.grib2 2026-04-28 02:58 1.7M
20260428T00Z_MSC_RDPS_RelativeHumidity_AGL-2m_RLatLon0.09_PT060H.grib2 2026-04-28 02:58 1.0M
20260428T00Z_MSC_RDPS_RelativeHumidity_IsbL-0010_RLatLon0.09_PT060H.grib2 2026-04-28 02:58 633K
20260428T00Z_MSC_RDPS_RelativeHumidity_IsbL-0020_RLatLon0.09_PT060H.grib2 2026-04-28 02:58 676K
20260428T00Z_MSC_RDPS_RelativeHumidity_IsbL-0030_RLatLon0.09_PT060H.grib2 2026-04-28 02:58 606K
20260428T00Z_MSC_RDPS_RelativeHumidity_IsbL-0050_RLatLon0.09_PT060H.grib2 2026-04-28 02:58 322K
20260428T00Z_MSC_RDPS_RelativeHumidity_IsbL-0100_RLatLon0.09_PT060H.grib2 2026-04-28 02:58 283K
20260428T00Z_MSC_RDPS_RelativeHumidity_IsbL-0150_RLatLon0.09_PT060H.grib2 2026-04-28 02:58 406K
20260428T00Z_MSC_RDPS_RelativeHumidity_IsbL-0175_RLatLon0.09_PT060H.grib2 2026-04-28 02:58 474K
20260428T00Z_MSC_RDPS_RelativeHumidity_IsbL-0200_RLatLon0.09_PT060H.grib2 2026-04-28 02:58 550K
20260428T00Z_MSC_RDPS_RelativeHumidity_IsbL-0225_RLatLon0.09_PT060H.grib2 2026-04-28 02:58 625K
20260428T00Z_MSC_RDPS_RelativeHumidity_IsbL-0250_RLatLon0.09_PT060H.grib2 2026-04-28 02:58 701K
20260428T00Z_MSC_RDPS_RelativeHumidity_IsbL-0275_RLatLon0.09_PT060H.grib2 2026-04-28 02:58 724K
20260428T00Z_MSC_RDPS_RelativeHumidity_IsbL-0300_RLatLon0.09_PT060H.grib2 2026-04-28 02:58 767K
20260428T00Z_MSC_RDPS_RelativeHumidity_IsbL-0350_RLatLon0.09_PT060H.grib2 2026-04-28 02:58 783K
20260428T00Z_MSC_RDPS_RelativeHumidity_IsbL-0400_RLatLon0.09_PT060H.grib2 2026-04-28 02:58 792K
20260428T00Z_MSC_RDPS_RelativeHumidity_IsbL-0450_RLatLon0.09_PT060H.grib2 2026-04-28 02:58 793K
20260428T00Z_MSC_RDPS_RelativeHumidity_IsbL-0500_RLatLon0.09_PT060H.grib2 2026-04-28 02:58 800K
20260428T00Z_MSC_RDPS_RelativeHumidity_IsbL-0550_RLatLon0.09_PT060H.grib2 2026-04-28 02:58 821K
20260428T00Z_MSC_RDPS_RelativeHumidity_IsbL-0600_RLatLon0.09_PT060H.grib2 2026-04-28 02:58 853K
20260428T00Z_MSC_RDPS_RelativeHumidity_IsbL-0650_RLatLon0.09_PT060H.grib2 2026-04-28 02:58 858K
20260428T00Z_MSC_RDPS_RelativeHumidity_IsbL-0700_RLatLon0.09_PT060H.grib2 2026-04-28 02:58 876K
20260428T00Z_MSC_RDPS_RelativeHumidity_IsbL-0750_RLatLon0.09_PT060H.grib2 2026-04-28 02:58 914K
20260428T00Z_MSC_RDPS_RelativeHumidity_IsbL-0800_RLatLon0.09_PT060H.grib2 2026-04-28 02:58 969K
20260428T00Z_MSC_RDPS_RelativeHumidity_IsbL-0850_RLatLon0.09_PT060H.grib2 2026-04-28 02:58 1.0M
20260428T00Z_MSC_RDPS_RelativeHumidity_IsbL-0875_RLatLon0.09_PT060H.grib2 2026-04-28 02:58 1.1M
20260428T00Z_MSC_RDPS_RelativeHumidity_IsbL-0900_RLatLon0.09_PT060H.grib2 2026-04-28 02:58 1.1M
20260428T00Z_MSC_RDPS_RelativeHumidity_IsbL-0925_RLatLon0.09_PT060H.grib2 2026-04-28 02:58 1.1M
20260428T00Z_MSC_RDPS_RelativeHumidity_IsbL-0950_RLatLon0.09_PT060H.grib2 2026-04-28 02:58 1.1M
20260428T00Z_MSC_RDPS_RelativeHumidity_IsbL-0970_RLatLon0.09_PT060H.grib2 2026-04-28 02:58 1.1M
20260428T00Z_MSC_RDPS_RelativeHumidity_IsbL-0985_RLatLon0.09_PT060H.grib2 2026-04-28 02:58 1.0M
20260428T00Z_MSC_RDPS_RelativeHumidity_IsbL-1000_RLatLon0.09_PT060H.grib2 2026-04-28 02:58 1.0M
20260428T00Z_MSC_RDPS_RelativeHumidity_IsbL-1015_RLatLon0.09_PT060H.grib2 2026-04-28 02:58 1.0M
20260428T00Z_MSC_RDPS_Runoff-Accum_Sfc_RLatLon0.09_PT060H.grib2 2026-04-28 02:58 55K
20260428T00Z_MSC_RDPS_SWEATIndex_Sfc_RLatLon0.09_PT060H.grib2 2026-04-28 02:58 2.4M
20260428T00Z_MSC_RDPS_SeeingIndex_EAtm_RLatLon0.09_PT060H.grib2 2026-04-28 02:58 1.1M
20260428T00Z_MSC_RDPS_SensibleHeatNetFlux_Sfc_RLatLon0.09_PT060H.grib2 2026-04-28 02:58 301K
20260428T00Z_MSC_RDPS_ShowalterIndex_IsbL-0500_RLatLon0.09_PT060H.grib2 2026-04-28 02:58 2.6M
20260428T00Z_MSC_RDPS_SkyTransparencyIndex_EAtm_RLatLon0.09_PT060H.grib2 2026-04-28 02:58 690K
20260428T00Z_MSC_RDPS_Snow-Accum12h_Sfc_RLatLon0.09_PT060H.grib2 2026-04-28 02:58 574K
20260428T00Z_MSC_RDPS_Snow-Accum1h_Sfc_RLatLon0.09_PT060H.grib2 2026-04-28 02:58 461K
20260428T00Z_MSC_RDPS_Snow-Accum24h_Sfc_RLatLon0.09_PT060H.grib2 2026-04-28 02:58 650K
20260428T00Z_MSC_RDPS_Snow-Accum3h_Sfc_RLatLon0.09_PT060H.grib2 2026-04-28 02:58 463K
20260428T00Z_MSC_RDPS_Snow-Accum6h_Sfc_RLatLon0.09_PT060H.grib2 2026-04-28 02:58 559K
20260428T00Z_MSC_RDPS_Snow-Accum_Sfc_RLatLon0.09_PT060H.grib2 2026-04-28 02:58 786K
20260428T00Z_MSC_RDPS_SnowDensity_Sfc_RLatLon0.09_PT060H.grib2 2026-04-28 02:58 184K
20260428T00Z_MSC_RDPS_SnowDepth_Sfc_RLatLon0.09_PT060H.grib2 2026-04-28 02:58 689K
20260428T00Z_MSC_RDPS_SoilTemp_DBS-0to10cm_RLatLon0.09_PT060H.grib2 2026-04-28 02:58 238K
20260428T00Z_MSC_RDPS_SoilTemp_Sfc_RLatLon0.09_PT060H.grib2 2026-04-28 02:58 278K
20260428T00Z_MSC_RDPS_SoilVolumetricIceContent_Sfc_RLatLon0.09_PT060H.grib2 2026-04-28 02:58 166K
20260428T00Z_MSC_RDPS_SoilVolumetricWaterContent_DBS-0to10cm_RLatLon0.09_PT060H.grib2 2026-04-28 02:58 267K
20260428T00Z_MSC_RDPS_SoilVolumetricWaterContent_DBS-0to1cm_RLatLon0.09_PT060H.grib2 2026-04-28 02:58 338K
20260428T00Z_MSC_RDPS_SpecificHumidity_AGL-120m_RLatLon0.09_PT060H.grib2 2026-04-28 02:58 489K
20260428T00Z_MSC_RDPS_SpecificHumidity_AGL-2m_RLatLon0.09_PT060H.grib2 2026-04-28 02:58 655K
20260428T00Z_MSC_RDPS_SpecificHumidity_AGL-40m_RLatLon0.09_PT060H.grib2 2026-04-28 02:58 495K
20260428T00Z_MSC_RDPS_SpecificHumidity_AGL-80m_RLatLon0.09_PT060H.grib2 2026-04-28 02:58 491K
20260428T00Z_MSC_RDPS_SpecificHumidity_IsbL-0001_RLatLon0.09_PT060H.grib2 2026-04-28 02:58 349K
20260428T00Z_MSC_RDPS_SpecificHumidity_IsbL-0005_RLatLon0.09_PT060H.grib2 2026-04-28 02:58 355K
20260428T00Z_MSC_RDPS_SpecificHumidity_IsbL-0010_RLatLon0.09_PT060H.grib2 2026-04-28 02:58 395K
20260428T00Z_MSC_RDPS_SpecificHumidity_IsbL-0020_RLatLon0.09_PT060H.grib2 2026-04-28 02:58 381K
20260428T00Z_MSC_RDPS_SpecificHumidity_IsbL-0030_RLatLon0.09_PT060H.grib2 2026-04-28 02:58 364K
20260428T00Z_MSC_RDPS_SpecificHumidity_IsbL-0050_RLatLon0.09_PT060H.grib2 2026-04-28 02:58 452K
20260428T00Z_MSC_RDPS_SpecificHumidity_IsbL-0100_RLatLon0.09_PT060H.grib2 2026-04-28 02:58 349K
20260428T00Z_MSC_RDPS_SpecificHumidity_IsbL-0150_RLatLon0.09_PT060H.grib2 2026-04-28 02:58 450K
20260428T00Z_MSC_RDPS_SpecificHumidity_IsbL-0175_RLatLon0.09_PT060H.grib2 2026-04-28 02:58 534K
20260428T00Z_MSC_RDPS_SpecificHumidity_IsbL-0200_RLatLon0.09_PT060H.grib2 2026-04-28 02:58 445K
20260428T00Z_MSC_RDPS_SpecificHumidity_IsbL-0225_RLatLon0.09_PT060H.grib2 2026-04-28 02:58 453K
20260428T00Z_MSC_RDPS_SpecificHumidity_IsbL-0250_RLatLon0.09_PT060H.grib2 2026-04-28 02:58 560K
20260428T00Z_MSC_RDPS_SpecificHumidity_IsbL-0275_RLatLon0.09_PT060H.grib2 2026-04-28 02:58 473K
20260428T00Z_MSC_RDPS_SpecificHumidity_IsbL-0300_RLatLon0.09_PT060H.grib2 2026-04-28 02:58 572K
20260428T00Z_MSC_RDPS_SpecificHumidity_IsbL-0350_RLatLon0.09_PT060H.grib2 2026-04-28 02:58 563K
20260428T00Z_MSC_RDPS_SpecificHumidity_IsbL-0400_RLatLon0.09_PT060H.grib2 2026-04-28 02:58 514K
20260428T00Z_MSC_RDPS_SpecificHumidity_IsbL-0450_RLatLon0.09_PT060H.grib2 2026-04-28 02:58 564K
20260428T00Z_MSC_RDPS_SpecificHumidity_IsbL-0500_RLatLon0.09_PT060H.grib2 2026-04-28 02:58 501K
20260428T00Z_MSC_RDPS_SpecificHumidity_IsbL-0550_RLatLon0.09_PT060H.grib2 2026-04-28 02:58 578K
20260428T00Z_MSC_RDPS_SpecificHumidity_IsbL-0600_RLatLon0.09_PT060H.grib2 2026-04-28 02:58 635K
20260428T00Z_MSC_RDPS_SpecificHumidity_IsbL-0650_RLatLon0.09_PT060H.grib2 2026-04-28 02:58 553K
20260428T00Z_MSC_RDPS_SpecificHumidity_IsbL-0700_RLatLon0.09_PT060H.grib2 2026-04-28 02:58 592K
20260428T00Z_MSC_RDPS_SpecificHumidity_IsbL-0750_RLatLon0.09_PT060H.grib2 2026-04-28 02:58 642K
20260428T00Z_MSC_RDPS_SpecificHumidity_IsbL-0800_RLatLon0.09_PT060H.grib2 2026-04-28 02:58 704K
20260428T00Z_MSC_RDPS_SpecificHumidity_IsbL-0850_RLatLon0.09_PT060H.grib2 2026-04-28 02:58 792K
20260428T00Z_MSC_RDPS_SpecificHumidity_IsbL-0875_RLatLon0.09_PT060H.grib2 2026-04-28 02:58 822K
20260428T00Z_MSC_RDPS_SpecificHumidity_IsbL-0900_RLatLon0.09_PT060H.grib2 2026-04-28 02:58 835K
20260428T00Z_MSC_RDPS_SpecificHumidity_IsbL-0925_RLatLon0.09_PT060H.grib2 2026-04-28 02:58 837K
20260428T00Z_MSC_RDPS_SpecificHumidity_IsbL-0950_RLatLon0.09_PT060H.grib2 2026-04-28 02:58 839K
20260428T00Z_MSC_RDPS_SpecificHumidity_IsbL-0970_RLatLon0.09_PT060H.grib2 2026-04-28 02:58 830K
20260428T00Z_MSC_RDPS_SpecificHumidity_IsbL-0985_RLatLon0.09_PT060H.grib2 2026-04-28 02:58 820K
20260428T00Z_MSC_RDPS_SpecificHumidity_IsbL-1000_RLatLon0.09_PT060H.grib2 2026-04-28 02:58 672K
20260428T00Z_MSC_RDPS_SpecificHumidity_IsbL-1015_RLatLon0.09_PT060H.grib2 2026-04-28 02:58 663K
20260428T00Z_MSC_RDPS_SpecificHumidity_Sfc_RLatLon0.09_PT060H.grib2 2026-04-28 02:58 294K
20260428T00Z_MSC_RDPS_StormRelativeHelicity_EtaL-10000_RLatLon0.09_PT060H.grib2 2026-04-28 02:58 1.1M
20260428T00Z_MSC_RDPS_StormSeverityIndex_EtaL-10000_RLatLon0.09_PT060H.grib2 2026-04-28 02:58 1.2M
20260428T00Z_MSC_RDPS_Thickness_IsbL-0850to0700_RLatLon0.09_PT060H.grib2 2026-04-28 02:58 176K
20260428T00Z_MSC_RDPS_Thickness_IsbL-1000to0500_RLatLon0.09_PT060H.grib2 2026-04-28 02:58 197K
20260428T00Z_MSC_RDPS_Thickness_IsbL-1000to0850_RLatLon0.09_PT060H.grib2 2026-04-28 02:58 261K
20260428T00Z_MSC_RDPS_TotalCloudCover_Sfc_RLatLon0.09_PT060H.grib2 2026-04-28 02:58 665K
20260428T00Z_MSC_RDPS_TotalTotalsIndex_Sfc_RLatLon0.09_PT060H.grib2 2026-04-28 02:58 2.4M
20260428T00Z_MSC_RDPS_UVIndex-ClearSky_Sfc_RLatLon0.09_PT060H.grib2 2026-04-28 02:58 143K
20260428T00Z_MSC_RDPS_UVIndex_Sfc_RLatLon0.09_PT060H.grib2 2026-04-28 02:58 330K
20260428T00Z_MSC_RDPS_UpwardLongwaveRadiationFlux_NTAtm_RLatLon0.09_PT060H.grib2 2026-04-28 02:58 487K
20260428T00Z_MSC_RDPS_UpwardShortwaveRadiationFlux_NTAtm_RLatLon0.09_PT060H.grib2 2026-04-28 02:58 298K
20260428T00Z_MSC_RDPS_VerticalVelocity_IsbL-0250_RLatLon0.09_PT060H.grib2 2026-04-28 02:58 553K
20260428T00Z_MSC_RDPS_VerticalVelocity_IsbL-0500_RLatLon0.09_PT060H.grib2 2026-04-28 02:58 542K
20260428T00Z_MSC_RDPS_VerticalVelocity_IsbL-0700_RLatLon0.09_PT060H.grib2 2026-04-28 02:58 584K
20260428T00Z_MSC_RDPS_VerticalVelocity_IsbL-0850_RLatLon0.09_PT060H.grib2 2026-04-28 02:58 633K
20260428T00Z_MSC_RDPS_VerticalWindShear_EtaL-6500_RLatLon0.09_PT060H.grib2 2026-04-28 02:58 1.2M
20260428T00Z_MSC_RDPS_WindChill_Sfc_RLatLon0.09_PT060H.grib2 2026-04-28 02:58 1.1M
20260428T00Z_MSC_RDPS_WindDir_AGL-10m_RLatLon0.09_PT060H.grib2 2026-04-28 02:58 1.0M
20260428T00Z_MSC_RDPS_WindDir_AGL-120m_RLatLon0.09_PT060H.grib2 2026-04-28 02:58 617K
20260428T00Z_MSC_RDPS_WindDir_AGL-40m_RLatLon0.09_PT060H.grib2 2026-04-28 02:58 646K
20260428T00Z_MSC_RDPS_WindDir_AGL-80m_RLatLon0.09_PT060H.grib2 2026-04-28 02:58 627K
20260428T00Z_MSC_RDPS_WindDir_IsbL-0001_RLatLon0.09_PT060H.grib2 2026-04-28 02:58 304K
20260428T00Z_MSC_RDPS_WindDir_IsbL-0005_RLatLon0.09_PT060H.grib2 2026-04-28 02:58 366K
20260428T00Z_MSC_RDPS_WindDir_IsbL-0010_RLatLon0.09_PT060H.grib2 2026-04-28 02:58 376K
20260428T00Z_MSC_RDPS_WindDir_IsbL-0020_RLatLon0.09_PT060H.grib2 2026-04-28 02:58 419K
20260428T00Z_MSC_RDPS_WindDir_IsbL-0030_RLatLon0.09_PT060H.grib2 2026-04-28 02:58 422K
20260428T00Z_MSC_RDPS_WindDir_IsbL-0050_RLatLon0.09_PT060H.grib2 2026-04-28 02:58 440K
20260428T00Z_MSC_RDPS_WindDir_IsbL-0100_RLatLon0.09_PT060H.grib2 2026-04-28 02:58 436K
20260428T00Z_MSC_RDPS_WindDir_IsbL-0150_RLatLon0.09_PT060H.grib2 2026-04-28 02:58 418K
20260428T00Z_MSC_RDPS_WindDir_IsbL-0175_RLatLon0.09_PT060H.grib2 2026-04-28 02:58 437K
20260428T00Z_MSC_RDPS_WindDir_IsbL-0200_RLatLon0.09_PT060H.grib2 2026-04-28 02:58 451K
20260428T00Z_MSC_RDPS_WindDir_IsbL-0225_RLatLon0.09_PT060H.grib2 2026-04-28 02:58 456K
20260428T00Z_MSC_RDPS_WindDir_IsbL-0250_RLatLon0.09_PT060H.grib2 2026-04-28 02:58 462K
20260428T00Z_MSC_RDPS_WindDir_IsbL-0275_RLatLon0.09_PT060H.grib2 2026-04-28 02:58 482K
20260428T00Z_MSC_RDPS_WindDir_IsbL-0300_RLatLon0.09_PT060H.grib2 2026-04-28 02:58 478K
20260428T00Z_MSC_RDPS_WindDir_IsbL-0350_RLatLon0.09_PT060H.grib2 2026-04-28 02:58 500K
20260428T00Z_MSC_RDPS_WindDir_IsbL-0400_RLatLon0.09_PT060H.grib2 2026-04-28 02:58 514K
20260428T00Z_MSC_RDPS_WindDir_IsbL-0450_RLatLon0.09_PT060H.grib2 2026-04-28 02:58 524K
20260428T00Z_MSC_RDPS_WindDir_IsbL-0500_RLatLon0.09_PT060H.grib2 2026-04-28 02:58 541K
20260428T00Z_MSC_RDPS_WindDir_IsbL-0550_RLatLon0.09_PT060H.grib2 2026-04-28 02:58 561K
20260428T00Z_MSC_RDPS_WindDir_IsbL-0600_RLatLon0.09_PT060H.grib2 2026-04-28 02:58 596K
20260428T00Z_MSC_RDPS_WindDir_IsbL-0650_RLatLon0.09_PT060H.grib2 2026-04-28 02:58 641K
20260428T00Z_MSC_RDPS_WindDir_IsbL-0700_RLatLon0.09_PT060H.grib2 2026-04-28 02:58 688K
20260428T00Z_MSC_RDPS_WindDir_IsbL-0750_RLatLon0.09_PT060H.grib2 2026-04-28 02:58 727K
20260428T00Z_MSC_RDPS_WindDir_IsbL-0800_RLatLon0.09_PT060H.grib2 2026-04-28 02:58 784K
20260428T00Z_MSC_RDPS_WindDir_IsbL-0850_RLatLon0.09_PT060H.grib2 2026-04-28 02:58 859K
20260428T00Z_MSC_RDPS_WindDir_IsbL-0875_RLatLon0.09_PT060H.grib2 2026-04-28 02:58 891K
20260428T00Z_MSC_RDPS_WindDir_IsbL-0900_RLatLon0.09_PT060H.grib2 2026-04-28 02:58 908K
20260428T00Z_MSC_RDPS_WindDir_IsbL-0925_RLatLon0.09_PT060H.grib2 2026-04-28 02:58 921K
20260428T00Z_MSC_RDPS_WindDir_IsbL-0950_RLatLon0.09_PT060H.grib2 2026-04-28 02:58 922K
20260428T00Z_MSC_RDPS_WindDir_IsbL-0970_RLatLon0.09_PT060H.grib2 2026-04-28 02:58 932K
20260428T00Z_MSC_RDPS_WindDir_IsbL-0985_RLatLon0.09_PT060H.grib2 2026-04-28 02:58 942K
20260428T00Z_MSC_RDPS_WindDir_IsbL-1000_RLatLon0.09_PT060H.grib2 2026-04-28 02:58 955K
20260428T00Z_MSC_RDPS_WindDir_IsbL-1015_RLatLon0.09_PT060H.grib2 2026-04-28 02:58 1.0M
20260428T00Z_MSC_RDPS_WindGust-Max_AGL-10m_RLatLon0.09_PT060H.grib2 2026-04-28 02:58 1.0M
20260428T00Z_MSC_RDPS_WindGust-Min_AGL-10m_RLatLon0.09_PT060H.grib2 2026-04-28 02:58 1.0M
20260428T00Z_MSC_RDPS_WindGust_AGL-10m_RLatLon0.09_PT060H.grib2 2026-04-28 02:58 1.0M
20260428T00Z_MSC_RDPS_WindSpeed_AGL-10m_RLatLon0.09_PT060H.grib2 2026-04-28 02:58 843K
20260428T00Z_MSC_RDPS_WindSpeed_AGL-120m_RLatLon0.09_PT060H.grib2 2026-04-28 02:58 554K
20260428T00Z_MSC_RDPS_WindSpeed_AGL-40m_RLatLon0.09_PT060H.grib2 2026-04-28 02:58 543K
20260428T00Z_MSC_RDPS_WindSpeed_AGL-80m_RLatLon0.09_PT060H.grib2 2026-04-28 02:58 543K
20260428T00Z_MSC_RDPS_WindSpeed_IsbL-0001_RLatLon0.09_PT060H.grib2 2026-04-28 02:58 333K
20260428T00Z_MSC_RDPS_WindSpeed_IsbL-0005_RLatLon0.09_PT060H.grib2 2026-04-28 02:58 298K
20260428T00Z_MSC_RDPS_WindSpeed_IsbL-0010_RLatLon0.09_PT060H.grib2 2026-04-28 02:58 403K
20260428T00Z_MSC_RDPS_WindSpeed_IsbL-0020_RLatLon0.09_PT060H.grib2 2026-04-28 02:58 327K
20260428T00Z_MSC_RDPS_WindSpeed_IsbL-0030_RLatLon0.09_PT060H.grib2 2026-04-28 02:58 327K
20260428T00Z_MSC_RDPS_WindSpeed_IsbL-0050_RLatLon0.09_PT060H.grib2 2026-04-28 02:58 354K
20260428T00Z_MSC_RDPS_WindSpeed_IsbL-0100_RLatLon0.09_PT060H.grib2 2026-04-28 02:58 481K
20260428T00Z_MSC_RDPS_WindSpeed_IsbL-0150_RLatLon0.09_PT060H.grib2 2026-04-28 02:58 383K
20260428T00Z_MSC_RDPS_WindSpeed_IsbL-0175_RLatLon0.09_PT060H.grib2 2026-04-28 02:58 427K
20260428T00Z_MSC_RDPS_WindSpeed_IsbL-0200_RLatLon0.09_PT060H.grib2 2026-04-28 02:58 444K
20260428T00Z_MSC_RDPS_WindSpeed_IsbL-0225_RLatLon0.09_PT060H.grib2 2026-04-28 02:58 451K
20260428T00Z_MSC_RDPS_WindSpeed_IsbL-0250_RLatLon0.09_PT060H.grib2 2026-04-28 02:58 455K
20260428T00Z_MSC_RDPS_WindSpeed_IsbL-0275_RLatLon0.09_PT060H.grib2 2026-04-28 02:58 473K
20260428T00Z_MSC_RDPS_WindSpeed_IsbL-0300_RLatLon0.09_PT060H.grib2 2026-04-28 02:58 469K
20260428T00Z_MSC_RDPS_WindSpeed_IsbL-0350_RLatLon0.09_PT060H.grib2 2026-04-28 02:58 481K
20260428T00Z_MSC_RDPS_WindSpeed_IsbL-0400_RLatLon0.09_PT060H.grib2 2026-04-28 02:58 464K
20260428T00Z_MSC_RDPS_WindSpeed_IsbL-0450_RLatLon0.09_PT060H.grib2 2026-04-28 02:58 463K
20260428T00Z_MSC_RDPS_WindSpeed_IsbL-0500_RLatLon0.09_PT060H.grib2 2026-04-28 02:58 465K
20260428T00Z_MSC_RDPS_WindSpeed_IsbL-0550_RLatLon0.09_PT060H.grib2 2026-04-28 02:58 464K
20260428T00Z_MSC_RDPS_WindSpeed_IsbL-0600_RLatLon0.09_PT060H.grib2 2026-04-28 02:58 471K
20260428T00Z_MSC_RDPS_WindSpeed_IsbL-0650_RLatLon0.09_PT060H.grib2 2026-04-28 02:58 609K
20260428T00Z_MSC_RDPS_WindSpeed_IsbL-0700_RLatLon0.09_PT060H.grib2 2026-04-28 02:58 634K
20260428T00Z_MSC_RDPS_WindSpeed_IsbL-0750_RLatLon0.09_PT060H.grib2 2026-04-28 02:58 707K
20260428T00Z_MSC_RDPS_WindSpeed_IsbL-0800_RLatLon0.09_PT060H.grib2 2026-04-28 02:58 749K
20260428T00Z_MSC_RDPS_WindSpeed_IsbL-0850_RLatLon0.09_PT060H.grib2 2026-04-28 02:58 808K
20260428T00Z_MSC_RDPS_WindSpeed_IsbL-0875_RLatLon0.09_PT060H.grib2 2026-04-28 02:58 831K
20260428T00Z_MSC_RDPS_WindSpeed_IsbL-0900_RLatLon0.09_PT060H.grib2 2026-04-28 02:58 848K
20260428T00Z_MSC_RDPS_WindSpeed_IsbL-0925_RLatLon0.09_PT060H.grib2 2026-04-28 02:58 861K
20260428T00Z_MSC_RDPS_WindSpeed_IsbL-0950_RLatLon0.09_PT060H.grib2 2026-04-28 02:58 863K
20260428T00Z_MSC_RDPS_WindSpeed_IsbL-0970_RLatLon0.09_PT060H.grib2 2026-04-28 02:58 865K
20260428T00Z_MSC_RDPS_WindSpeed_IsbL-0985_RLatLon0.09_PT060H.grib2 2026-04-28 02:58 857K
20260428T00Z_MSC_RDPS_WindSpeed_IsbL-1000_RLatLon0.09_PT060H.grib2 2026-04-28 02:58 851K
20260428T00Z_MSC_RDPS_WindSpeed_IsbL-1015_RLatLon0.09_PT060H.grib2 2026-04-28 02:58 842K
20260428T00Z_MSC_RDPS_WindU_AGL-10m_RLatLon0.09_PT060H.grib2 2026-04-28 02:58 432K
20260428T00Z_MSC_RDPS_WindU_AGL-120m_RLatLon0.09_PT060H.grib2 2026-04-28 02:58 538K
20260428T00Z_MSC_RDPS_WindU_AGL-40m_RLatLon0.09_PT060H.grib2 2026-04-28 02:58 541K
20260428T00Z_MSC_RDPS_WindU_AGL-80m_RLatLon0.09_PT060H.grib2 2026-04-28 02:58 539K
20260428T00Z_MSC_RDPS_WindU_IsbL-0001_RLatLon0.09_PT060H.grib2 2026-04-28 02:58 243K
20260428T00Z_MSC_RDPS_WindU_IsbL-0005_RLatLon0.09_PT060H.grib2 2026-04-28 02:58 288K
20260428T00Z_MSC_RDPS_WindU_IsbL-0010_RLatLon0.09_PT060H.grib2 2026-04-28 02:58 300K
20260428T00Z_MSC_RDPS_WindU_IsbL-0020_RLatLon0.09_PT060H.grib2 2026-04-28 02:58 355K
20260428T00Z_MSC_RDPS_WindU_IsbL-0030_RLatLon0.09_PT060H.grib2 2026-04-28 02:58 317K
20260428T00Z_MSC_RDPS_WindU_IsbL-0050_RLatLon0.09_PT060H.grib2 2026-04-28 02:58 346K
20260428T00Z_MSC_RDPS_WindU_IsbL-0100_RLatLon0.09_PT060H.grib2 2026-04-28 02:58 436K
20260428T00Z_MSC_RDPS_WindU_IsbL-0150_RLatLon0.09_PT060H.grib2 2026-04-28 02:58 398K
20260428T00Z_MSC_RDPS_WindU_IsbL-0175_RLatLon0.09_PT060H.grib2 2026-04-28 02:58 420K
20260428T00Z_MSC_RDPS_WindU_IsbL-0200_RLatLon0.09_PT060H.grib2 2026-04-28 02:58 338K
20260428T00Z_MSC_RDPS_WindU_IsbL-0225_RLatLon0.09_PT060H.grib2 2026-04-28 02:58 343K
20260428T00Z_MSC_RDPS_WindU_IsbL-0250_RLatLon0.09_PT060H.grib2 2026-04-28 02:58 345K
20260428T00Z_MSC_RDPS_WindU_IsbL-0275_RLatLon0.09_PT060H.grib2 2026-04-28 02:58 360K
20260428T00Z_MSC_RDPS_WindU_IsbL-0300_RLatLon0.09_PT060H.grib2 2026-04-28 02:58 355K
20260428T00Z_MSC_RDPS_WindU_IsbL-0350_RLatLon0.09_PT060H.grib2 2026-04-28 02:58 470K
20260428T00Z_MSC_RDPS_WindU_IsbL-0400_RLatLon0.09_PT060H.grib2 2026-04-28 02:58 469K
20260428T00Z_MSC_RDPS_WindU_IsbL-0450_RLatLon0.09_PT060H.grib2 2026-04-28 02:58 468K
20260428T00Z_MSC_RDPS_WindU_IsbL-0500_RLatLon0.09_PT060H.grib2 2026-04-28 02:58 471K
20260428T00Z_MSC_RDPS_WindU_IsbL-0550_RLatLon0.09_PT060H.grib2 2026-04-28 02:58 453K
20260428T00Z_MSC_RDPS_WindU_IsbL-0600_RLatLon0.09_PT060H.grib2 2026-04-28 02:58 460K
20260428T00Z_MSC_RDPS_WindU_IsbL-0650_RLatLon0.09_PT060H.grib2 2026-04-28 02:58 479K
20260428T00Z_MSC_RDPS_WindU_IsbL-0700_RLatLon0.09_PT060H.grib2 2026-04-28 02:58 501K
20260428T00Z_MSC_RDPS_WindU_IsbL-0750_RLatLon0.09_PT060H.grib2 2026-04-28 02:58 528K
20260428T00Z_MSC_RDPS_WindU_IsbL-0800_RLatLon0.09_PT060H.grib2 2026-04-28 02:58 695K
20260428T00Z_MSC_RDPS_WindU_IsbL-0850_RLatLon0.09_PT060H.grib2 2026-04-28 02:58 618K
20260428T00Z_MSC_RDPS_WindU_IsbL-0875_RLatLon0.09_PT060H.grib2 2026-04-28 02:58 637K
20260428T00Z_MSC_RDPS_WindU_IsbL-0900_RLatLon0.09_PT060H.grib2 2026-04-28 02:58 649K
20260428T00Z_MSC_RDPS_WindU_IsbL-0925_RLatLon0.09_PT060H.grib2 2026-04-28 02:58 658K
20260428T00Z_MSC_RDPS_WindU_IsbL-0950_RLatLon0.09_PT060H.grib2 2026-04-28 02:58 656K
20260428T00Z_MSC_RDPS_WindU_IsbL-0970_RLatLon0.09_PT060H.grib2 2026-04-28 02:58 656K
20260428T00Z_MSC_RDPS_WindU_IsbL-0985_RLatLon0.09_PT060H.grib2 2026-04-28 02:58 792K
20260428T00Z_MSC_RDPS_WindU_IsbL-1000_RLatLon0.09_PT060H.grib2 2026-04-28 02:58 788K
20260428T00Z_MSC_RDPS_WindU_IsbL-1015_RLatLon0.09_PT060H.grib2 2026-04-28 02:58 828K
20260428T00Z_MSC_RDPS_WindV_AGL-10m_RLatLon0.09_PT060H.grib2 2026-04-28 02:58 432K
20260428T00Z_MSC_RDPS_WindV_AGL-120m_RLatLon0.09_PT060H.grib2 2026-04-28 02:58 537K
20260428T00Z_MSC_RDPS_WindV_AGL-40m_RLatLon0.09_PT060H.grib2 2026-04-28 02:58 537K
20260428T00Z_MSC_RDPS_WindV_AGL-80m_RLatLon0.09_PT060H.grib2 2026-04-28 02:58 537K
20260428T00Z_MSC_RDPS_WindV_IsbL-0001_RLatLon0.09_PT060H.grib2 2026-04-28 02:58 246K
20260428T00Z_MSC_RDPS_WindV_IsbL-0005_RLatLon0.09_PT060H.grib2 2026-04-28 02:58 290K
20260428T00Z_MSC_RDPS_WindV_IsbL-0010_RLatLon0.09_PT060H.grib2 2026-04-28 02:58 304K
20260428T00Z_MSC_RDPS_WindV_IsbL-0020_RLatLon0.09_PT060H.grib2 2026-04-28 02:58 321K
20260428T00Z_MSC_RDPS_WindV_IsbL-0030_RLatLon0.09_PT060H.grib2 2026-04-28 02:58 322K
20260428T00Z_MSC_RDPS_WindV_IsbL-0050_RLatLon0.09_PT060H.grib2 2026-04-28 02:58 348K
20260428T00Z_MSC_RDPS_WindV_IsbL-0100_RLatLon0.09_PT060H.grib2 2026-04-28 02:58 431K
20260428T00Z_MSC_RDPS_WindV_IsbL-0150_RLatLon0.09_PT060H.grib2 2026-04-28 02:58 395K
20260428T00Z_MSC_RDPS_WindV_IsbL-0175_RLatLon0.09_PT060H.grib2 2026-04-28 02:58 419K
20260428T00Z_MSC_RDPS_WindV_IsbL-0200_RLatLon0.09_PT060H.grib2 2026-04-28 02:58 335K
20260428T00Z_MSC_RDPS_WindV_IsbL-0225_RLatLon0.09_PT060H.grib2 2026-04-28 02:58 341K
20260428T00Z_MSC_RDPS_WindV_IsbL-0250_RLatLon0.09_PT060H.grib2 2026-04-28 02:58 343K
20260428T00Z_MSC_RDPS_WindV_IsbL-0275_RLatLon0.09_PT060H.grib2 2026-04-28 02:58 358K
20260428T00Z_MSC_RDPS_WindV_IsbL-0300_RLatLon0.09_PT060H.grib2 2026-04-28 02:58 352K
20260428T00Z_MSC_RDPS_WindV_IsbL-0350_RLatLon0.09_PT060H.grib2 2026-04-28 02:58 362K
20260428T00Z_MSC_RDPS_WindV_IsbL-0400_RLatLon0.09_PT060H.grib2 2026-04-28 02:58 466K
20260428T00Z_MSC_RDPS_WindV_IsbL-0450_RLatLon0.09_PT060H.grib2 2026-04-28 02:58 467K
20260428T00Z_MSC_RDPS_WindV_IsbL-0500_RLatLon0.09_PT060H.grib2 2026-04-28 02:58 467K
20260428T00Z_MSC_RDPS_WindV_IsbL-0550_RLatLon0.09_PT060H.grib2 2026-04-28 02:58 467K
20260428T00Z_MSC_RDPS_WindV_IsbL-0600_RLatLon0.09_PT060H.grib2 2026-04-28 02:58 475K
20260428T00Z_MSC_RDPS_WindV_IsbL-0650_RLatLon0.09_PT060H.grib2 2026-04-28 02:58 476K
20260428T00Z_MSC_RDPS_WindV_IsbL-0700_RLatLon0.09_PT060H.grib2 2026-04-28 02:58 498K
20260428T00Z_MSC_RDPS_WindV_IsbL-0750_RLatLon0.09_PT060H.grib2 2026-04-28 02:58 523K
20260428T00Z_MSC_RDPS_WindV_IsbL-0800_RLatLon0.09_PT060H.grib2 2026-04-28 02:58 689K
20260428T00Z_MSC_RDPS_WindV_IsbL-0850_RLatLon0.09_PT060H.grib2 2026-04-28 02:58 748K
20260428T00Z_MSC_RDPS_WindV_IsbL-0875_RLatLon0.09_PT060H.grib2 2026-04-28 02:58 771K
20260428T00Z_MSC_RDPS_WindV_IsbL-0900_RLatLon0.09_PT060H.grib2 2026-04-28 02:58 648K
20260428T00Z_MSC_RDPS_WindV_IsbL-0925_RLatLon0.09_PT060H.grib2 2026-04-28 02:58 797K
20260428T00Z_MSC_RDPS_WindV_IsbL-0950_RLatLon0.09_PT060H.grib2 2026-04-28 02:58 797K
20260428T00Z_MSC_RDPS_WindV_IsbL-0970_RLatLon0.09_PT060H.grib2 2026-04-28 02:58 797K
20260428T00Z_MSC_RDPS_WindV_IsbL-0985_RLatLon0.09_PT060H.grib2 2026-04-28 02:58 839K
20260428T00Z_MSC_RDPS_WindV_IsbL-1000_RLatLon0.09_PT060H.grib2 2026-04-28 02:58 832K
20260428T00Z_MSC_RDPS_WindV_IsbL-1015_RLatLon0.09_PT060H.grib2 2026-04-28 02:58 825K